Wind_Speed
41 48 49 52 54 54 54 52 51 55 58 58 58 55 55 54 51 51 53 56 47 46 46 46 54 59 56 55 54 55 54 53 52 50 50 48 48 47 46 45 43 42 43 44 43 41 41
43 43 45 51 52 55 55 56 56 54 53 56 56 60 59 58 57 55 54 54 54 53 50 48 46 48 50 51 53 52 50 49 49 49 47 48 48 49 47 48 47 47 45 44 46 45 45
48 48 47 47 49 54 56 58 59 59 58 57 57 58 59 59 61 59 58 58 58 57 55 53 51 49 49 52 51 51 51 51 50 50 50 50 50 51 52 52 51 49 48 48 51 51 50
56 53 52 50 50 50 51 55 59 59 62 61 59 59 59 58 61 61 64 62 63 64 62 60 57 55 55 56 55 54 54 54 54 54 54 56 54 54 55 54 53 52 52 53 56 54 53
65 61 59 56 56 54 52 52 52 55 59 61 62 63 62 61 60 59 61 63 63 61 63 63 63 62 59 58 59 58 59 59 59 58 58 57 57 58 59 56 54 56 56 56 51 55 54
70 70 68 65 62 59 58 56 54 53 52 55 59 61 62 63 64 64 64 63 61 61 60 60 59 57 56 58 58 57 58 55 55 55 56 58 58 61 59 54 55 57 55 58 54 54 53
75 74 75 74 69 68 64 62 59 57 54 53 53 54 56 59 61 63 63 64 65 64 64 65 65 65 62 63 61 62 63 62 60 60 61 61 59 61 58 58 59 60 59 60 61 61 59
77 80 79 78 77 75 73 71 68 65 61 58 57 54 53 55 56 56 57 58 61 63 64 64 64 63 64 64 64 65 65 66 65 66 65 66 64 65 63 65 65 65 64 65 65 64 63
76 77 83 83 80 79 78 75 74 71 69 67 64 60 57 57 55 55 55 55 56 56 56 57 57 57 57 59 60 62 62 64 66 68 68 65 66 66 65 65 66 65 64 65 65 65 64
85 80 79 82 86 85 82 80 78 75 74 71 69 67 65 64 61 60 58 57 56 55 55 52 50 48 50 51 49 50 50 51 52 55 55 57 60 60 61 63 65 65 64 62 62 62 62
93 89 84 82 82 83 84 85 83 80 78 76 74 73 70 68 68 65 64 62 60 58 51 49 46 46 47 47 47 47 47 46 47 47 47 48 47 47 47 48 49 50 54 56 57 58 60
99 96 92 88 84 82 80 79 79 78 78 78 77 74 71 69 69 72 71 68 67 64 52 51 49 48 48 48 50 46 48 47 48 47 45 44 41 41 41 41 42 42 44 45 45 46 47
107 103 99 95 90 86 84 81 78 75 73 71 71 72 71 70 67 69 75 75 72 62 58 56 55 56 55 53 52 49 48 48 49 47 44 46 42 43 44 45 46 46 46 45 43 42 40
112 109 105 102 96 93 90 87 83 79 75 72 70 69 67 67 66 64 67 75 71 65 65 61 64 61 59 56 53 52 50 49 49 48 49 48 48 49 48 50 51 48 48 49 49 48 46
115 112 111 106 103 98 96 92 89 85 81 77 73 71 70 68 66 64 63 62 64 69 69 63 63 60 59 56 54 53 51 50 49 50 52 53 53 52 50 53 54 55 52 54 53 52 48
114 114 114 112 108 105 101 98 93 89 86 82 79 76 73 72 71 69 65 58 59 62 61 63 61 59 58 56 56 54 54 52 52 52 52 50 49 48 47 50 49 51 52 50 52 50 49
116 116 116 116 113 110 107 103 100 97 93 88 85 82 78 78 76 72 66 64 63 61 62 63 62 60 60 59 56 60 58 52 54 51 53 52 50 49 44 44 47 46 47 45 48 48 48
116 116 119 117 117 115 111 109 106 102 99 94 91 88 83 83 81 77 73 71 69 68 69 67 65 64 63 61 57 62 59 54 54 54 54 54 54 51 46 48 46 48 45 48 47 48 48
113 115 118 118 120 118 116 113 110 108 103 99 95 92 88 88 84 80 78 76 75 75 73 71 68 66 63 65 66 66 62 56 58 58 58 60 58 58 56 51 49 55 54 50 53 50 48
106 114 117 120 119 121 118 118 114 112 108 104 101 97 95 90 88 84 84 81 79 79 78 75 76 71 71 71 69 68 66 62 63 63 64 64 65 63 59 61 57 55 57 57 55 54 53
98 108 116 121 120 120 120 119 118 116 113 110 107 100 99 94 91 90 88 87 85 81 81 80 78 76 77 76 73 71 71 66 69 68 69 68 66 68 65 65 65 60 60 65 61 57 56
88 97 111 114 120 119 119 121 118 116 117 114 110 106 104 101 97 96 92 88 88 86 84 84 82 81 80 80 79 77 76 72 76 72 73 72 71 71 67 68 70 66 67 65 63 60 57
81 88 99 107 113 117 119 119 121 118 115 115 114 110 110 106 103 101 97 95 92 90 88 88 87 84 86 86 80 81 81 80 80 78 78 75 76 75 69 75 76 70 68 69 68 66 62
75 79 85 93 105 111 115 115 119 121 119 118 113 112 112 111 109 105 103 99 98 94 93 90 92 91 88 85 87 86 85 85 84 82 81 81 81 83 78 82 81 70 76 76 73 70 70
74 76 78 84 93 103 108 113 114 121 123 121 119 116 115 111 112 110 106 106 103 100 98 97 95 92 92 93 92 89 88 88 86 87 87 86 88 89 85 85 84 81 79 78 76 70 74
70 75 77 79 79 88 103 107 109 113 117 121 119 118 118 116 113 110 111 108 107 106 103 101 100 99 98 99 95 94 94 93 95 94 90 90 90 93 88 88 89 77 82 87 77 73 77
63 71 77 76 75 83 88 98 103 105 109 113 117 118 116 116 113 112 110 107 107 106 106 104 105 104 104 102 102 101 99 98 97 97 94 94 96 94 92 94 89 87 90 83 81 72 72
55 61 67 75 82 81 81 85 93 101 102 106 110 113 115 113 113 114 114 112 109 108 106 104 106 104 104 105 105 103 103 101 100 99 99 99 99 99 99 98 93 93 88 84 79 74 73
50 55 61 68 72 79 82 81 81 86 95 100 101 105 108 108 110 111 111 113 112 113 112 111 107 106 105 106 105 106 104 103 102 100 104 103 102 101 97 97 95 87 85 78 78 75 73
Wind_Direction
233 232 231 230 231 232 234 234 231 225 224 225 230 231 234 236 235 235 238 235 236 238 241 243 239 241 244 247 252 254 256 259 262 264 266 268 271 273 275 276 277 278 279 285 287 288 289
237 235 234 233 231 231 233 234 234 234 233 228 226 228 229 233 234 235 235 236 237 238 241 241 242 242 244 248 249 252 255 257 260 263 265 266 268 270 272 274 275 278 282 283 282 284 287
239 236 237 235 233 233 231 231 234 235 236 235 232 230 228 229 231 232 233 236 239 241 244 245 245 244 246 247 248 251 254 256 257 259 260 261 264 266 269 273 275 277 278 279 279 280 282
241 239 236 237 236 235 234 235 233 234 235 236 237 236 234 233 232 234 235 236 238 241 244 244 245 246 246 247 247 250 252 254 256 257 259 260 262 263 266 269 273 276 275 276 280 278 281
236 237 239 236 236 238 237 236 234 235 236 236 237 237 239 240 240 241 239 238 238 240 240 241 244 247 247 248 249 253 254 253 255 257 258 260 262 264 267 268 271 272 274 274 271 280 283
234 235 236 237 238 236 237 238 238 236 235 236 237 239 239 240 241 241 243 243 241 242 244 246 246 245 248 249 250 253 254 254 258 257 259 261 263 263 265 268 269 270 271 272 271 276 280
235 234 234 235 235 236 236 236 237 237 237 237 237 237 238 239 241 242 243 243 244 244 246 248 249 251 252 252 253 255 256 256 257 259 260 262 261 260 265 267 267 268 268 269 273 275 275
237 235 234 234 234 234 235 235 236 236 236 237 238 237 240 240 240 240 242 244 246 245 246 247 248 250 251 253 253 253 255 256 257 257 259 258 259 262 264 264 265 266 268 269 271 272 272
237 235 234 234 235 235 235 236 237 236 236 237 238 237 240 242 242 241 241 243 243 243 244 245 248 250 252 253 254 255 256 258 259 259 259 261 261 262 262 264 266 268 268 270 271 273 273
235 235 234 234 234 235 236 237 237 238 237 237 238 238 239 240 242 244 242 241 243 242 242 243 246 248 249 251 253 252 254 257 257 258 261 263 263 264 267 266 267 268 268 271 273 272 273
233 233 233 233 233 234 235 236 236 237 239 238 238 239 238 240 241 242 243 243 242 241 241 243 245 246 249 250 251 253 256 257 260 261 263 262 265 265 265 267 269 271 272 272 274 276 275
231 232 232 231 232 232 232 232 234 235 237 238 239 238 237 240 242 241 241 241 242 241 242 241 245 247 249 251 252 253 255 256 257 259 261 263 265 266 269 270 272 273 276 277 277 279 279
231 230 230 230 230 230 230 230 231 231 232 234 236 237 239 240 240 241 239 239 241 244 242 242 247 249 249 250 251 252 256 257 258 261 264 264 266 272 272 273 274 276 281 280 280 281 282
228 229 228 229 228 229 229 229 230 230 231 232 233 234 235 236 237 238 239 238 240 240 241 243 246 246 247 247 247 250 253 255 257 258 261 265 268 269 272 274 275 276 276 278 280 282 283
227 226 227 227 228 227 227 228 229 229 230 230 231 232 234 234 235 238 238 239 238 237 240 242 239 240 243 246 248 249 250 253 256 260 264 268 271 272 276 277 278 277 276 276 276 279 280
226 225 224 225 226 226 226 227 227 228 229 231 231 231 233 233 235 237 237 236 236 235 234 235 235 237 241 243 245 248 251 254 257 260 265 269 269 273 273 277 280 280 279 276 273 274 274
224 224 223 223 224 225 226 226 227 228 229 229 230 231 232 234 234 236 238 236 235 234 232 234 236 237 241 244 246 248 252 252 257 258 263 265 267 270 275 278 280 282 280 280 280 277 271
223 223 223 223 222 223 225 225 226 228 229 230 229 231 233 235 236 236 237 238 238 237 237 236 238 240 241 243 244 250 252 254 259 257 258 264 268 272 273 275 285 283 282 278 278 280 283
224 223 222 223 222 222 223 225 226 227 228 229 230 230 232 234 235 237 237 238 238 238 239 239 239 240 241 245 246 249 251 254 254 260 262 266 269 269 274 276 279 278 283 287 280 280 280
223 222 222 222 222 222 222 224 225 226 228 229 230 230 232 234 236 236 237 237 238 239 239 240 241 242 243 245 246 249 252 254 257 260 264 267 269 271 272 275 275 278 284 284 281 281 278
222 220 221 223 222 222 223 224 225 226 227 228 229 231 232 234 235 236 236 238 238 239 240 240 242 243 245 246 248 252 253 253 258 261 263 266 269 270 271 273 275 277 280 283 280 280 277
223 222 222 223 223 223 224 223 226 227 228 229 229 230 232 233 234 235 236 238 239 240 243 243 243 243 246 247 247 250 254 257 258 260 262 264 267 268 271 272 273 276 281 282 282 277 275
223 223 223 221 222 225 223 224 226 226 228 229 230 230 231 233 234 235 236 238 239 240 242 243 245 246 246 248 251 252 253 256 258 260 263 265 266 268 269 271 273 277 280 279 276 275 274
223 222 223 221 220 223 224 224 225 227 229 230 231 232 234 233 234 235 236 239 240 241 242 244 245 245 248 249 250 253 255 258 260 261 263 265 267 269 270 271 274 278 275 275 276 273 274
222 222 221 221 220 222 225 224 225 225 227 229 231 233 234 235 236 236 237 238 240 242 242 244 245 247 247 250 252 254 257 258 260 262 264 266 268 271 272 272 273 274 274 272 272 272 271
221 221 221 222 219 222 224 224 226 226 228 229 230 233 235 235 236 237 238 239 241 242 243 245 246 247 247 250 253 255 257 259 261 264 266 268 267 269 270 271 272 270 269 269 271 270 266
219 220 221 221 219 221 223 224 224 225 226 228 230 232 234 234 236 239 239 240 242 244 244 246 248 250 251 252 254 256 258 259 261 264 265 265 267 269 270 271 270 269 270 271 271 265 263
217 218 220 220 219 220 222 223 223 225 226 229 230 232 234 235 237 238 238 241 244 245 247 247 248 250 251 252 253 256 258 260 261 262 263 264 267 269 270 270 272 270 270 268 267 262 255
216 216 218 220 219 219 221 222 223 224 226 228 230 232 233 235 237 238 240 243 245 247 248 248 250 252 253 254 255 256 257 259 261 263 265 266 266 267 270 270 268 267 265 261 259 259 252
Height
10709 10712 10715 10719 10723 10727 10731 10735 10739 10744 10749 10754 10760 10765 10770 10775 10779 10783 10787 10792 10796 10800 10804 10807 10811 10815 10819 10822 10825 10826 10829 10832 10835 10837 10838 10838 10837 10836 10835 10836 10838 10839 10841 10840 10837 10836 10834
10700 10702 10705 10709 10712 10716 10720 10724 10729 10734 10738 10744 10749 10754 10759 10764 10768 10772 10777 10782 10787 10791 10795 10799 10802 10806 10810 10814 10814 10817 10821 10823 10826 10827 10829 10829 10828 10827 10827 10826 10829 10830 10834 10834 10828 10827 10827
10688 10692 10695 10698 10701 10705 10709 10713 10718 10723 10727 10732 10737 10741 10747 10753 10757 10761 10766 10771 10776 10780 10784 10789 10793 10798 10801 10802 10806 10808 10812 10814 10816 10817 10819 10819 10818 10818 10817 10817 10819 10824 10824 10823 10819 10818 10819
10676 10680 10683 10687 10691 10694 10698 10703 10707 10712 10717 10722 10727 10731 10736 10740 10744 10749 10755 10758 10763 10768 10772 10777 10782 10787 10790 10792 10796 10799 10802 10803 10805 10807 10808 10807 10809 10808 10807 10809 10811 10813 10814 10812 10808 10807 10808
10662 10666 10671 10675 10679 10683 10687 10691 10695 10701 10706 10710 10716 10720 10725 10729 10733 10737 10742 10747 10751 10755 10760 10764 10770 10776 10778 10782 10785 10789 10792 10793 10794 10796 10797 10797 10799 10799 10798 10801 10805 10802 10802 10803 10800 10801 10799
10645 10650 10656 10661 10666 10670 10675 10679 10684 10689 10694 10699 10704 10709 10713 10718 10721 10725 10730 10735 10738 10742 10747 10751 10757 10762 10765 10770 10773 10777 10780 10781 10783 10786 10786 10787 10789 10787 10790 10794 10794 10791 10793 10788 10792 10791 10790
10625 10632 10638 10644 10650 10656 10661 10666 10671 10677 10683 10687 10693 10697 10701 10706 10710 10714 10718 10722 10727 10730 10734 10740 10744 10749 10753 10756 10761 10764 10767 10771 10771 10773 10775 10776 10777 10773 10782 10782 10781 10780 10782 10781 10782 10780 10783
10605 10612 10618 10625 10632 10639 10646 10652 10657 10663 10670 10675 10680 10685 10689 10695 10699 10702 10706 10710 10713 10719 10722 10727 10732 10736 10741 10744 10747 10750 10753 10756 10758 10759 10762 10763 10765 10763 10768 10766 10766 10766 10768 10768 10769 10769 10769
10586 10590 10598 10605 10612 10620 10628 10635 10642 10649 10655 10661 10667 10673 10677 10682 10687 10692 10695 10698 10702 10707 10711 10716 10720 10725 10729 10730 10734 10737 10740 10741 10743 10747 10748 10753 10752 10751 10753 10755 10754 10755 10755 10756 10757 10758 10755
10563 10571 10577 10584 10591 10600 10608 10616 10624 10632 10639 10646 10652 10658 10664 10668 10674 10678 10683 10687 10690 10694 10700 10706 10712 10716 10716 10719 10723 10724 10727 10729 10731 10732 10736 10739 10737 10738 10741 10741 10741 10742 10741 10744 10744 10744 10743
10536 10546 10556 10564 10571 10580 10588 10596 10605 10614 10622 10629 10636 10643 10649 10654 10660 10665 10669 10673 10677 10681 10692 10697 10702 10704 10706 10709 10711 10714 10715 10719 10718 10722 10726 10724 10726 10728 10730 10728 10730 10729 10730 10731 10731 10731 10731
10506 10519 10531 10542 10551 10560 10569 10577 10586 10595 10603 10611 10618 10625 10633 10639 10644 10649 10654 10658 10661 10668 10685 10688 10690 10692 10694 10697 10698 10706 10705 10709 10709 10713 10715 10715 10717 10719 10720 10719 10720 10720 10719 10721 10721 10720 10720
10475 10489 10504 10518 10530 10540 10549 10558 10567 10576 10585 10593 10600 10608 10616 10623 10628 10632 10637 10641 10647 10664 10671 10675 10678 10679 10683 10686 10688 10692 10695 10698 10700 10703 10704 10703 10708 10709 10710 10710 10711 10712 10712 10711 10711 10710 10711
10441 10459 10476 10491 10506 10519 10528 10539 10549 10559 10568 10576 10584 10591 10599 10606 10612 10616 10620 10625 10641 10653 10654 10663 10662 10665 10668 10673 10678 10681 10685 10687 10689 10692 10693 10695 10698 10698 10701 10700 10701 10704 10702 10703 10702 10701 10702
10407 10428 10444 10463 10480 10495 10506 10518 10530 10540 10549 10559 10567 10575 10583 10590 10596 10601 10606 10617 10631 10632 10637 10647 10647 10651 10656 10661 10665 10669 10673 10675 10679 10681 10682 10683 10686 10689 10689 10688 10690 10690 10693 10690 10691 10692 10693
10377 10398 10416 10433 10451 10469 10482 10496 10509 10521 10531 10541 10550 10558 10567 10573 10580 10586 10595 10609 10613 10618 10626 10626 10634 10639 10643 10648 10652 10657 10660 10665 10668 10670 10670 10672 10674 10675 10678 10675 10678 10677 10677 10678 10677 10682 10681
10347 10366 10385 10404 10424 10441 10457 10472 10487 10499 10510 10522 10532 10540 10552 10556 10563 10573 10587 10594 10598 10605 10609 10614 10619 10627 10630 10634 10643 10643 10647 10656 10656 10660 10657 10659 10664 10662 10668 10666 10664 10666 10664 10666 10666 10669 10668
10318 10335 10356 10376 10396 10414 10432 10447 10462 10475 10488 10500 10513 10521 10534 10538 10548 10560 10571 10577 10584 10590 10592 10600 10606 10612 10617 10621 10629 10628 10633 10640 10644 10644 10646 10647 10651 10654 10657 10654 10657 10652 10654 10652 10654 10656 10658
10290 10310 10327 10349 10368 10386 10405 10421 10438 10452 10466 10480 10492 10502 10513 10520 10535 10546 10553 10561 10567 10571 10578 10586 10593 10599 10606 10608 10611 10614 10619 10630 10629 10629 10633 10635 10640 10641 10643 10647 10646 10638 10641 10643 10644 10645 10647
10264 10284 10302 10318 10339 10359 10380 10396 10413 10428 10443 10456 10470 10486 10494 10506 10516 10529 10534 10542 10548 10555 10563 10571 10575 10585 10589 10591 10596 10600 10603 10613 10613 10617 10617 10620 10623 10627 10632 10629 10631 10633 10631 10631 10631 10633 10634
10241 10259 10274 10292 10311 10335 10354 10370 10388 10404 10419 10433 10447 10468 10476 10489 10500 10505 10514 10522 10531 10540 10546 10553 10561 10567 10571 10575 10581 10584 10586 10598 10595 10601 10602 10606 10609 10609 10614 10615 10614 10620 10623 10616 10619 10621 10622
10221 10235 10250 10271 10289 10311 10329 10344 10363 10381 10395 10410 10429 10442 10454 10464 10476 10483 10495 10506 10512 10520 10530 10536 10544 10548 10554 10557 10562 10567 10573 10581 10576 10587 10585 10589 10591 10592 10599 10597 10597 10606 10605 10605 10606 10606 10607
10201 10215 10230 10251 10268 10285 10303 10323 10340 10356 10372 10387 10404 10422 10424 10441 10452 10463 10478 10483 10492 10502 10511 10516 10522 10534 10531 10538 10551 10550 10552 10558 10560 10566 10566 10573 10573 10574 10586 10577 10578 10594 10590 10586 10587 10588 10591
10183 10196 10210 10229 10248 10261 10280 10298 10317 10333 10348 10362 10382 10395 10408 10420 10428 10443 10454 10465 10470 10483 10489 10500 10501 10509 10521 10526 10523 10529 10534 10538 10543 10549 10550 10552 10552 10552 10565 10558 10563 10582 10567 10567 10569 10572 10572
10165 10179 10194 10209 10227 10242 10257 10275 10292 10309 10323 10338 10355 10369 10382 10397 10409 10421 10435 10440 10451 10462 10466 10474 10483 10493 10497 10499 10504 10511 10516 10519 10524 10525 10530 10531 10531 10530 10539 10541 10548 10557 10549 10544 10548 10561 10552
10149 10163 10176 10190 10211 10224 10233 10250 10268 10284 10300 10315 10330 10346 10360 10373 10383 10399 10409 10421 10429 10435 10449 10456 10461 10469 10474 10477 10485 10491 10495 10500 10500 10505 10508 10508 10508 10506 10522 10521 10523 10537 10525 10519 10534 10542 10528
10134 10147 10160 10176 10194 10200 10214 10230 10247 10263 10278 10291 10308 10322 10335 10350 10367 10376 10384 10398 10408 10416 10423 10436 10439 10446 10451 10457 10463 10468 10474 10475 10480 10483 10486 10482 10483 10490 10492 10496 10502 10508 10502 10508 10506 10519 10510
10123 10134 10147 10160 10170 10185 10199 10211 10228 10243 10258 10273 10289 10300 10314 10331 10343 10352 10364 10372 10382 10391 10402 10414 10415 10422 10428 10433 10438 10444 10450 10452 10458 10460 10461 10463 10462 10465 10468 10468 10477 10472 10482 10481 10485 10492 10490
10112 10122 10131 10141 10157 10170 10182 10196 10212 10226 10240 10254 10269 10280 10294 10310 10321 10330 10341 10349 10359 10368 10377 10382 10394 10400 10404 10408 10415 10419 10427 10429 10435 10439 10433 10438 10438 10440 10443 10443 10440 10452 10453 10461 10459 10464 10470